START_TIME,STEP,MOV.,M15,t_acc.,M20,t_acc.
1979-07-15 09:00:44.130 ,0,0,0.,24.0,0.,24.0
1979-07-15 09:01:08.130 ,0,1,0.,24.0,0.,24.0
1979-07-15 09:01:32.130 ,0,0,0.,24.0,0.,24.0
1979-07-15 09:01:56.130 ,1,1,0.,24.0,0.,24.0
1979-07-15 09:02:20.130 ,1,0,0.,24.0,0.,24.0
1979-07-15 09:02:44.130 ,2,1,0.,24.0,0.,24.0
1979-07-15 09:03:08.130 ,2,0,0.,24.0,0.,24.0
1979-07-15 09:03:32.130 ,3,1,0.,24.0,0.,24.0
1979-07-15 09:03:56.130 ,3,0,0.,24.0,0.,24.0
1979-07-15 09:04:20.130 ,4,1,0.,24.0,0.,24.0
1979-07-15 09:04:44.130 ,4,0,0.,24.0,0.,24.0
1979-07-15 09:05:08.130 ,5,1,0.,24.0,0.,24.0
1979-07-15 09:05:32.130 ,5,0,0.,24.0,0.,24.0
1979-07-15 09:05:56.130 ,6,1,0.,24.0,0.,24.0
1979-07-15 09:06:20.130 ,6,0,0.,24.0,0.,24.0
1979-07-15 09:06:44.130 ,7,0,0.,24.0,0.,24.0
1979-07-15 09:07:08.130 ,7,0,0.,24.0,0.,24.0
1979-07-15 09:07:32.130 ,3,1,0.,24.0,0.,24.0
1979-07-15 09:07:56.130 ,0,1,0.,24.0,0.,24.0
1979-07-15 09:08:20.130 ,4,1,0.,24.0,0.,24.0
1979-07-15 09:08:44.130 ,7,1,0.,24.0,0.,24.0
1979-07-15 09:09:08.130 ,3,1,0.,24.0,0.,24.0
1979-07-15 09:09:32.130 ,0,1,0.,24.0,0.,24.0
1979-07-15 09:09:56.130 ,4,1,0.,24.0,0.,24.0
1979-07-15 09:10:20.130 ,7,1,0.,24.0,0.,24.0
1979-07-15 09:10:44.130 ,3,1,0.,24.0,0.,24.0
1979-07-15 09:11:08.130 ,0,1,0.,24.0,0.,24.0
1979-07-15 09:11:32.130 ,4,1,0.,24.0,0.,24.0
1979-07-15 09:11:56.130 ,7,1,0.,24.0,0.,24.0
1979-07-15 09:12:20.130 ,3,1,0.,24.0,0.,24.0
1979-07-15 09:12:44.130 ,0,1,0.,24.0,0.,24.0
1979-07-15 09:13:08.130 ,4,1,0.,24.0,0.,24.0
1979-07-15 09:13:32.130 ,7,1,0.,24.0,0.,24.0
1979-07-15 09:13:56.130 ,3,1,0.,24.0,0.,24.0
1979-07-15 09:14:20.130 ,0,1,0.,24.0,0.,24.0
1979-07-15 09:14:44.130 ,4,1,0.,24.0,0.,24.0
1979-07-15 09:15:08.130 ,7,1,0.,24.0,0.,24.0
1979-07-15 09:15:32.130 ,3,1,0.,24.0,0.,24.0
1979-07-15 09:15:56.130 ,0,1,0.,24.0,0.,24.0
1979-07-15 09:16:20.130 ,4,1,0.,24.0,0.,24.0
1979-07-15 09:16:44.130 ,7,1,0.,24.0,0.,24.0
1979-07-15 09:17:08.130 ,3,1,0.,24.0,0.,24.0
1979-07-15 09:17:32.130 ,0,1,0.,24.0,0.,24.0
1979-07-15 09:17:56.130 ,0,0,0.,24.0,0.,24.0
1979-07-15 09:18:20.130 ,0,0,0.,24.0,0.,24.0
1979-07-15 09:18:44.130 ,5,1,0.,24.0,0.,24.0
1979-07-15 09:19:08.130 ,5,0,0.,24.0,0.,24.0
1979-07-15 09:19:32.130 ,4,1,0.,24.0,0.,24.0
1979-07-15 09:19:56.130 ,4,0,0.,24.0,0.,24.0
1979-07-15 09:20:20.130 ,3,1,0.,24.0,0.,24.0
1979-07-15 09:20:44.130 ,3,0,0.,24.0,0.,24.0
1979-07-15 09:21:08.130 ,2,1,0.,24.0,0.,24.0
1979-07-15 09:21:32.130 ,2,0,0.,24.0,0.,24.0
1979-07-15 09:21:56.130 ,1,1,0.,24.0,0.,24.0
1979-07-15 09:22:20.130 ,1,0,0.,24.0,0.,24.0
1979-07-15 09:22:44.130 ,0,1,0.,24.0,0.,24.0
1979-07-15 09:23:08.130 ,0,0,0.,24.0,0.,24.0
1979-07-15 09:23:32.130 ,0,1,0.,24.0,0.,24.0
1979-07-15 09:23:56.130 ,0,0,0.,24.0,0.,24.0
1979-07-15 09:24:20.130 ,1,1,0.,24.0,0.,24.0
1979-07-15 09:24:44.130 ,1,0,0.,24.0,0.,24.0
1979-07-15 09:25:08.130 ,2,1,0.,24.0,0.,24.0
1979-07-15 09:25:32.130 ,2,0,0.,24.0,0.,24.0
1979-07-15 09:25:56.130 ,3,1,0.,24.0,0.,24.0
1979-07-15 09:26:20.130 ,3,0,0.,24.0,0.,24.0
1979-07-15 09:26:44.130 ,4,1,0.,24.0,0.,24.0
1979-07-15 09:27:08.130 ,4,0,0.,24.0,0.,24.0
1979-07-15 09:27:32.130 ,5,1,0.,24.0,0.,24.0
1979-07-15 09:27:56.130 ,5,0,0.,24.0,0.,24.0
1979-07-15 09:28:20.130 ,6,1,0.,24.0,0.,24.0
1979-07-15 09:28:44.130 ,6,0,0.,24.0,0.,24.0
1979-07-15 09:29:08.130 ,7,1,0.,24.0,0.,24.0
1979-07-15 09:29:32.130 ,7,0,0.,24.0,0.,24.0
1979-07-15 09:29:56.130 ,7,1,0.,24.0,0.,24.0
1979-07-15 09:30:20.130 ,7,0,0.,24.0,0.,24.0
1979-07-15 09:30:44.130 ,6,1,0.,24.0,0.,24.0
1979-07-15 09:31:08.130 ,6,0,0.,24.0,0.,24.0
1979-07-15 09:31:32.130 ,5,1,0.,24.0,0.,24.0
1979-07-15 09:31:56.130 ,5,0,0.,24.0,0.,24.0
1979-07-15 09:32:20.130 ,4,1,0.,24.0,0.,24.0
1979-07-15 09:32:44.130 ,4,0,0.,24.0,0.,24.0
1979-07-15 09:33:08.130 ,3,1,0.,24.0,0.,24.0
1979-07-15 09:33:32.130 ,3,0,0.,24.0,0.,24.0
1979-07-15 09:33:56.130 ,2,1,0.,24.0,0.,24.0
1979-07-15 09:34:20.130 ,2,0,0.,24.0,0.,24.0
1979-07-15 09:34:44.130 ,1,1,0.,24.0,0.,24.0
1979-07-15 09:35:08.130 ,1,0,0.,24.0,0.,24.0
1979-07-15 09:35:32.130 ,0,1,0.,24.0,0.,24.0
1979-07-15 09:35:56.130 ,0,0,0.,24.0,0.,24.0
1979-07-15 09:36:20.130 ,0,1,0.,24.0,0.,24.0
1979-07-15 09:36:44.130 ,0,0,0.,24.0,0.,24.0
1979-07-15 09:37:08.130 ,1,1,0.,24.0,0.,24.0
1979-07-15 09:37:32.130 ,1,0,0.,24.0,0.,24.0
1979-07-15 09:37:56.130 ,2,1,0.,24.0,0.,24.0
1979-07-15 09:38:20.130 ,2,0,0.,24.0,0.,24.0
1979-07-15 09:38:44.130 ,3,1,0.,24.0,0.,24.0
1979-07-15 09:39:08.130 ,3,0,0.,24.0,0.,24.0
1979-07-15 09:39:32.130 ,4,1,0.,24.0,0.,24.0
1979-07-15 09:39:56.130 ,4,0,0.,24.0,0.,24.0
1979-07-15 09:40:20.130 ,5,1,0.,24.0,0.,24.0
1979-07-15 09:40:44.130 ,5,0,0.,24.0,0.,24.0
1979-07-15 09:41:08.130 ,6,1,0.,24.0,0.,24.0
1979-07-15 09:41:32.130 ,6,0,0.,24.0,0.,24.0
1979-07-15 09:41:56.130 ,7,1,0.,24.0,0.,24.0
1979-07-15 09:42:20.130 ,7,0,0.,24.0,0.,24.0
1979-07-15 09:42:44.130 ,7,1,0.,24.0,0.,24.0
1979-07-15 09:43:08.130 ,7,0,0.,24.0,0.,24.0
1979-07-15 09:43:32.130 ,6,1,0.,24.0,0.,24.0
1979-07-15 09:43:56.130 ,6,0,0.,24.0,0.,24.0
1979-07-15 09:44:20.130 ,5,1,0.,24.0,0.,24.0
1979-07-15 09:44:44.130 ,5,0,0.,24.0,0.,24.0
1979-07-15 09:45:08.130 ,4,1,0.,24.0,0.,24.0
1979-07-15 09:45:32.130 ,4,0,0.,24.0,0.,24.0
1979-07-15 09:45:56.130 ,3,1,0.,24.0,0.,24.0
1979-07-15 09:46:20.130 ,3,0,0.,24.0,0.,24.0
1979-07-15 09:46:44.130 ,2,1,0.,24.0,0.,24.0
1979-07-15 09:47:08.130 ,2,0,0.,24.0,0.,24.0
1979-07-15 09:47:32.130 ,1,1,0.,24.0,0.,24.0
1979-07-15 09:47:56.130 ,1,0,0.,24.0,0.,24.0
1979-07-15 09:48:20.130 ,0,1,0.,24.0,0.,24.0
1979-07-15 09:48:44.130 ,0,0,0.,24.0,0.,24.0
1979-07-15 09:49:08.130 ,0,1,0.,24.0,0.,24.0
1979-07-15 09:49:32.130 ,0,0,0.,24.0,0.,24.0
1979-07-15 09:49:56.130 ,1,1,0.,24.0,0.,24.0
1979-07-15 09:50:20.130 ,1,0,0.,24.0,0.,24.0
1979-07-15 09:50:44.130 ,2,1,0.,24.0,0.,24.0
1979-07-15 09:51:08.130 ,2,0,0.,24.0,0.,24.0
1979-07-15 09:51:32.130 ,3,1,0.,24.0,0.,24.0
1979-07-15 09:51:56.130 ,3,0,0.,24.0,0.,24.0
1979-07-15 09:52:20.130 ,4,1,0.,24.0,0.,24.0
1979-07-15 09:52:44.130 ,4,0,0.,24.0,0.,24.0
1979-07-15 09:53:08.130 ,5,1,0.,24.0,0.,24.0
1979-07-15 09:53:32.130 ,5,0,0.,24.0,0.,24.0
1979-07-15 09:53:56.130 ,6,1,0.,24.0,0.,24.0
1979-07-15 09:54:20.130 ,6,0,0.,24.0,0.,24.0
1979-07-15 09:54:44.130 ,7,0,0.,24.0,0.,24.0
1979-07-15 09:55:08.130 ,7,0,0.,24.0,0.,24.0
1979-07-15 09:55:32.130 ,3,1,0.,24.0,0.,24.0
1979-07-15 09:55:56.130 ,0,1,0.,24.0,0.,24.0
1979-07-15 09:56:20.130 ,4,1,0.,24.0,0.,24.0
1979-07-15 09:56:44.130 ,7,1,0.,24.0,0.,24.0
1979-07-15 09:57:08.130 ,3,1,0.,24.0,0.,24.0
1979-07-15 09:57:32.130 ,0,1,0.,24.0,0.,24.0
1979-07-15 09:57:56.130 ,4,1,0.,24.0,0.,24.0
1979-07-15 09:58:20.130 ,7,1,0.,24.0,0.,24.0
1979-07-15 09:58:44.130 ,3,1,0.,24.0,0.,24.0
1979-07-15 09:59:08.130 ,0,1,0.,24.0,0.,24.0
1979-07-15 09:59:32.130 ,4,1,0.,24.0,0.,24.0
1979-07-15 09:59:56.130 ,7,1,0.,24.0,0.,24.0
1979-07-15 10:00:20.130 ,3,1,0.,24.0,0.,24.0
1979-07-15 10:00:44.130 ,0,1,0.,24.0,0.,24.0
1979-07-15 10:01:08.130 ,4,1,0.,24.0,0.,24.0
1979-07-15 10:01:32.130 ,7,1,0.,24.0,0.,24.0
1979-07-15 10:01:56.130 ,3,1,0.,24.0,0.,24.0
1979-07-15 10:02:20.130 ,0,1,0.,24.0,0.,24.0
1979-07-15 10:02:44.130 ,4,1,0.,24.0,0.,24.0
1979-07-15 10:03:08.130 ,7,1,0.,24.0,0.,24.0
1979-07-15 10:03:32.130 ,3,1,0.,24.0,0.,24.0
1979-07-15 10:03:56.130 ,0,1,0.,24.0,0.,24.0
1979-07-15 10:04:20.130 ,4,1,0.,24.0,0.,24.0
1979-07-15 10:04:44.130 ,7,1,0.,24.0,0.,24.0
1979-07-15 10:05:08.130 ,3,1,0.,24.0,0.,24.0
1979-07-15 10:05:32.130 ,0,1,0.,24.0,0.,24.0
1979-07-15 10:05:56.130 ,0,0,0.,24.0,0.,24.0
1979-07-15 10:06:20.130 ,0,0,0.,24.0,0.,24.0
1979-07-15 10:06:44.130 ,5,1,0.,24.0,0.,24.0
1979-07-15 10:07:08.130 ,5,0,0.,24.0,0.,24.0
1979-07-15 10:07:32.130 ,4,1,0.,24.0,0.,24.0
1979-07-15 10:07:56.130 ,4,0,0.,24.0,0.,24.0
1979-07-15 10:08:20.130 ,3,1,0.,24.0,0.,24.0
1979-07-15 10:08:44.130 ,3,0,0.,24.0,0.,24.0
1979-07-15 10:09:08.130 ,2,1,0.,24.0,0.,24.0
1979-07-15 10:09:32.130 ,2,0,0.,24.0,0.,24.0
1979-07-15 10:09:56.130 ,1,1,0.,24.0,0.,24.0
1979-07-15 10:10:20.130 ,1,0,0.,24.0,0.,24.0
1979-07-15 10:10:44.130 ,0,1,0.,24.0,0.,24.0
1979-07-15 10:11:08.130 ,0,0,0.,24.0,0.,24.0
1979-07-15 10:11:32.130 ,0,1,0.,24.0,0.,24.0
1979-07-15 10:11:56.130 ,0,0,0.,24.0,0.,24.0
1979-07-15 10:12:20.130 ,1,1,0.,24.0,0.,24.0
1979-07-15 10:12:44.130 ,1,0,0.,24.0,0.,24.0
1979-07-15 10:13:08.130 ,2,1,0.,24.0,0.,24.0
1979-07-15 10:13:32.130 ,2,0,0.,24.0,0.,24.0
1979-07-15 10:13:56.130 ,3,1,0.,24.0,0.,24.0
1979-07-15 10:14:20.130 ,3,0,0.,24.0,0.,24.0
1979-07-15 10:14:44.130 ,4,1,0.,24.0,0.,24.0
1979-07-15 10:15:08.130 ,4,0,0.,24.0,0.,24.0
1979-07-15 10:15:32.130 ,5,1,0.,24.0,0.,24.0
1979-07-15 10:15:56.130 ,5,0,0.,24.0,0.,24.0
1979-07-15 10:16:20.130 ,6,1,0.,24.0,0.,24.0
1979-07-15 10:16:44.130 ,6,0,0.,24.0,0.,24.0
1979-07-15 10:17:08.130 ,7,1,0.,24.0,0.,24.0
1979-07-15 10:17:32.130 ,7,0,0.,24.0,0.,24.0
1979-07-15 10:17:56.130 ,7,1,0.,24.0,0.,24.0
1979-07-15 10:18:20.130 ,7,0,0.,24.0,0.,24.0
1979-07-15 10:18:44.130 ,6,1,0.,24.0,0.,24.0
1979-07-15 10:19:08.130 ,6,0,0.,24.0,0.,24.0
1979-07-15 10:19:32.130 ,5,1,0.,24.0,0.,24.0
1979-07-15 10:19:56.130 ,5,0,0.,24.0,0.,24.0
1979-07-15 10:20:20.130 ,4,1,0.,24.0,0.,24.0
1979-07-15 10:20:44.130 ,4,0,0.,24.0,0.,24.0
1979-07-15 10:21:08.130 ,3,1,0.,24.0,0.,24.0
1979-07-15 10:21:32.130 ,3,0,0.,24.0,0.,24.0
1979-07-15 10:21:56.130 ,2,1,0.,24.0,0.,24.0
1979-07-15 10:22:20.130 ,2,0,0.,24.0,0.,24.0
1979-07-15 10:22:44.130 ,1,1,0.,24.0,0.,24.0
1979-07-15 10:23:08.130 ,1,0,0.,24.0,0.,24.0
1979-07-15 10:23:32.130 ,0,1,0.,24.0,0.,24.0
1979-07-15 10:23:56.130 ,0,0,0.,24.0,0.,24.0
1979-07-15 10:24:20.130 ,0,1,0.,24.0,0.,24.0
1979-07-15 10:24:44.130 ,0,0,0.,24.0,0.,24.0
1979-07-15 10:25:08.130 ,1,1,0.,24.0,0.,24.0
1979-07-15 10:25:32.130 ,1,0,0.,24.0,0.,24.0
1979-07-15 10:25:56.130 ,2,1,0.,24.0,0.,24.0
1979-07-15 10:26:20.130 ,2,0,0.,24.0,0.,24.0
1979-07-15 10:26:44.130 ,3,1,0.,24.0,0.,24.0
1979-07-15 10:27:08.130 ,3,0,0.,24.0,0.,24.0
1979-07-15 10:27:32.130 ,4,1,0.,24.0,0.,24.0
1979-07-15 10:27:56.130 ,4,0,0.,24.0,0.,24.0
1979-07-15 10:28:20.130 ,5,1,0.,24.0,0.,24.0
1979-07-15 10:28:44.130 ,5,0,0.,24.0,0.,24.0
1979-07-15 10:29:08.130 ,6,1,0.,24.0,0.,24.0
1979-07-15 10:29:32.130 ,6,0,0.,24.0,0.,24.0
1979-07-15 10:29:56.130 ,7,1,0.,24.0,0.,24.0
1979-07-15 10:30:20.130 ,7,0,0.,24.0,0.,24.0
1979-07-15 10:30:44.130 ,7,1,0.,24.0,0.,24.0
1979-07-15 10:31:08.130 ,7,0,0.,24.0,0.,24.0
1979-07-15 10:31:32.130 ,6,1,0.,24.0,0.,24.0
1979-07-15 10:31:56.130 ,6,0,0.,24.0,0.,24.0
1979-07-15 10:32:20.130 ,5,1,0.,24.0,0.,24.0
1979-07-15 10:32:44.130 ,5,0,0.,24.0,0.,24.0
1979-07-15 10:33:08.130 ,4,1,0.,24.0,0.,24.0
1979-07-15 10:33:32.130 ,4,0,0.,24.0,0.,24.0
1979-07-15 10:33:56.130 ,3,1,0.,24.0,0.,24.0
1979-07-15 10:34:20.130 ,3,0,0.,24.0,0.,24.0
1979-07-15 10:34:44.130 ,2,1,0.,24.0,0.,24.0
1979-07-15 10:35:08.130 ,2,0,0.,24.0,0.,24.0
1979-07-15 10:35:32.130 ,1,1,0.,24.0,0.,24.0
1979-07-15 10:35:56.130 ,1,0,0.,24.0,0.,24.0
1979-07-15 10:36:20.130 ,0,1,0.,24.0,0.,24.0
1979-07-15 10:36:44.130 ,0,0,0.,24.0,0.,24.0
1979-07-15 10:37:08.130 ,0,1,0.,24.0,0.,24.0
1979-07-15 10:37:32.130 ,0,0,0.,24.0,0.,24.0
1979-07-15 10:37:56.130 ,1,1,0.,24.0,0.,24.0
1979-07-15 10:38:20.130 ,1,0,0.,24.0,0.,24.0
1979-07-15 10:38:44.130 ,2,1,0.,24.0,0.,24.0
1979-07-15 10:39:08.130 ,2,0,0.,24.0,0.,24.0
1979-07-15 10:39:32.130 ,3,1,0.,24.0,0.,24.0
1979-07-15 10:39:56.130 ,3,0,0.,24.0,0.,24.0
1979-07-15 10:40:20.130 ,4,1,0.,24.0,0.,24.0
1979-07-15 10:40:44.130 ,4,0,0.,24.0,0.,24.0
1979-07-15 10:41:08.130 ,5,1,0.,24.0,0.,24.0
1979-07-15 10:41:32.130 ,5,0,0.,24.0,0.,24.0
1979-07-15 10:41:56.130 ,6,1,0.,24.0,0.,24.0
1979-07-15 10:42:20.130 ,6,0,0.,24.0,0.,24.0
1979-07-15 10:42:44.130 ,7,0,0.,24.0,0.,24.0
1979-07-15 10:43:08.130 ,7,0,0.,24.0,0.,24.0
1979-07-15 10:43:32.130 ,3,1,0.,24.0,0.,24.0
1979-07-15 10:43:56.130 ,0,1,0.,24.0,0.,24.0
1979-07-15 10:44:20.130 ,4,1,0.,24.0,0.,24.0
1979-07-15 10:44:44.130 ,7,1,0.,24.0,0.,24.0
1979-07-15 10:45:08.130 ,3,1,0.,24.0,0.,24.0
1979-07-15 10:45:32.130 ,0,1,0.,24.0,0.,24.0
1979-07-15 10:45:56.130 ,4,1,1.,24.0,0.,24.0
1979-07-15 10:46:20.130 ,7,1,0.,24.0,0.,24.0
1979-07-15 10:46:44.130 ,3,1,0.,24.0,0.,24.0
1979-07-15 10:47:08.130 ,0,1,0.,24.0,0.,24.0
1979-07-15 10:47:32.130 ,4,1,0.,24.0,0.,24.0
1979-07-15 10:47:56.130 ,7,1,0.,24.0,0.,24.0
1979-07-15 10:48:20.130 ,3,1,0.,24.0,0.,24.0
1979-07-15 10:48:44.130 ,0,1,0.,24.0,0.,24.0
1979-07-15 10:49:08.130 ,4,1,0.,24.0,0.,24.0
1979-07-15 10:49:32.130 ,7,1,0.,24.0,0.,24.0
1979-07-15 10:49:56.130 ,3,1,0.,24.0,0.,24.0
1979-07-15 10:50:20.130 ,0,1,0.,24.0,0.,24.0
1979-07-15 10:50:44.130 ,4,1,0.,24.0,0.,24.0
1979-07-15 10:51:08.130 ,7,1,0.,24.0,0.,24.0
1979-07-15 10:51:32.130 ,3,1,0.,24.0,0.,24.0
1979-07-15 10:51:56.130 ,0,1,0.,24.0,0.,24.0
1979-07-15 10:52:20.130 ,4,1,0.,24.0,0.,24.0
1979-07-15 10:52:44.130 ,7,1,0.,24.0,0.,24.0
1979-07-15 10:53:08.130 ,3,1,0.,24.0,0.,24.0
1979-07-15 10:53:32.130 ,0,1,0.,24.0,0.,24.0
1979-07-15 10:53:56.130 ,0,0,0.,24.0,0.,24.0
1979-07-15 10:54:20.130 ,0,0,0.,24.0,0.,24.0
1979-07-15 10:54:44.130 ,5,1,0.,24.0,0.,24.0
1979-07-15 10:55:08.130 ,5,0,0.,24.0,0.,24.0
1979-07-15 10:55:32.130 ,4,1,0.,24.0,0.,24.0
1979-07-15 10:55:56.130 ,4,0,0.,24.0,0.,24.0
1979-07-15 10:56:20.130 ,3,1,0.,24.0,0.,24.0
1979-07-15 10:56:44.130 ,3,0,0.,24.0,0.,24.0
1979-07-15 10:57:08.130 ,2,1,0.,24.0,0.,24.0
1979-07-15 10:57:32.130 ,2,0,0.,24.0,0.,24.0
1979-07-15 10:57:56.130 ,1,1,0.,24.0,0.,24.0
1979-07-15 10:58:20.130 ,1,0,0.,24.0,0.,24.0
1979-07-15 10:58:44.130 ,0,1,0.,24.0,0.,24.0
1979-07-15 10:59:08.130 ,0,0,0.,24.0,0.,24.0
1979-07-15 10:59:32.130 ,0,1,0.,24.0,0.,24.0
1979-07-15 10:59:56.130 ,0,0,0.,24.0,0.,24.0
1979-07-15 11:00:20.130 ,1,1,0.,24.0,0.,24.0
1979-07-15 11:00:44.130 ,1,0,0.,24.0,0.,24.0
1979-07-15 11:01:08.130 ,2,1,0.,24.0,0.,24.0
1979-07-15 11:01:32.130 ,2,0,0.,24.0,0.,24.0
1979-07-15 11:01:56.130 ,3,1,0.,24.0,0.,24.0
1979-07-15 11:02:20.130 ,3,0,0.,24.0,0.,24.0
1979-07-15 11:02:44.130 ,4,1,0.,24.0,0.,24.0
1979-07-15 11:03:08.130 ,4,0,0.,24.0,0.,24.0
1979-07-15 11:03:32.130 ,5,1,0.,24.0,0.,24.0
1979-07-15 11:03:56.130 ,5,0,0.,24.0,0.,24.0
1979-07-15 11:04:20.130 ,6,1,0.,24.0,0.,24.0
1979-07-15 11:04:44.130 ,6,0,0.,24.0,0.,24.0
1979-07-15 11:05:08.130 ,7,1,0.,24.0,0.,24.0
1979-07-15 11:05:32.130 ,7,0,0.,24.0,0.,24.0
1979-07-15 11:05:56.120 ,7,1,0.,24.0,0.,24.0
1979-07-15 11:06:20.120 ,7,0,0.,24.0,0.,24.0
1979-07-15 11:06:44.120 ,6,1,0.,24.0,0.,24.0
1979-07-15 11:07:08.120 ,6,0,0.,24.0,0.,24.0
1979-07-15 11:07:32.120 ,5,1,0.,24.0,0.,24.0
1979-07-15 11:07:56.120 ,5,0,0.,24.0,0.,24.0
1979-07-15 11:08:20.120 ,4,1,0.,24.0,0.,24.0
1979-07-15 11:08:44.120 ,4,0,0.,24.0,0.,24.0
1979-07-15 11:09:08.120 ,3,1,0.,24.0,0.,24.0
1979-07-15 11:09:32.120 ,3,0,0.,24.0,0.,24.0
1979-07-15 11:09:56.120 ,2,1,0.,24.0,0.,24.0
1979-07-15 11:10:20.120 ,2,0,0.,24.0,0.,24.0
1979-07-15 11:10:44.120 ,1,1,0.,24.0,0.,24.0
1979-07-15 11:11:08.120 ,1,0,0.,24.0,0.,24.0
1979-07-15 11:11:32.120 ,0,1,0.,24.0,0.,24.0
1979-07-15 11:11:56.120 ,0,0,0.,24.0,0.,24.0
1979-07-15 11:12:20.120 ,0,1,0.,24.0,0.,24.0
1979-07-15 11:12:44.120 ,0,0,0.,24.0,0.,24.0
1979-07-15 11:13:08.120 ,1,1,0.,24.0,0.,24.0
1979-07-15 11:13:32.120 ,1,0,0.,24.0,0.,24.0
1979-07-15 11:13:56.120 ,2,1,0.,24.0,0.,24.0
1979-07-15 11:14:20.120 ,2,0,0.,24.0,0.,24.0
1979-07-15 11:14:44.120 ,3,1,0.,24.0,0.,24.0
1979-07-15 11:15:08.120 ,3,0,0.,24.0,0.,24.0
1979-07-15 11:15:32.120 ,4,1,0.,24.0,0.,24.0
1979-07-15 11:15:56.120 ,4,0,0.,24.0,0.,24.0
1979-07-15 11:16:20.120 ,5,1,0.,24.0,0.,24.0
1979-07-15 11:16:44.120 ,5,0,0.,24.0,0.,24.0
1979-07-15 11:17:08.120 ,6,1,0.,24.0,0.,24.0
1979-07-15 11:17:32.120 ,6,0,0.,24.0,0.,24.0
1979-07-15 11:17:56.120 ,7,1,0.,24.0,0.,24.0
1979-07-15 11:18:20.120 ,7,0,0.,24.0,0.,24.0
1979-07-15 11:18:44.120 ,7,1,0.,24.0,0.,24.0
1979-07-15 11:19:08.120 ,7,0,0.,24.0,0.,24.0
1979-07-15 11:19:32.120 ,6,1,0.,24.0,0.,24.0
1979-07-15 11:19:56.120 ,6,0,0.,24.0,0.,24.0
1979-07-15 11:20:20.120 ,5,1,0.,24.0,0.,24.0
1979-07-15 11:20:44.120 ,5,0,0.,24.0,0.,24.0
1979-07-15 11:21:08.120 ,4,1,0.,24.0,0.,24.0
1979-07-15 11:21:56.120 ,3,1,0.,24.0,0.,24.0
1979-07-15 11:22:20.120 ,3,0,0.,24.0,0.,24.0
1979-07-15 11:22:44.120 ,2,1,0.,24.0,0.,24.0
1979-07-15 11:23:08.120 ,2,0,0.,24.0,0.,24.0
1979-07-15 11:23:32.120 ,1,1,0.,24.0,0.,24.0
1979-07-15 11:23:56.120 ,1,0,0.,24.0,0.,24.0
1979-07-15 11:24:20.120 ,0,1,0.,24.0,0.,24.0
1979-07-15 11:24:44.120 ,0,0,0.,24.0,0.,24.0
1979-07-15 11:25:08.120 ,0,1,0.,24.0,0.,24.0
1979-07-15 11:25:32.120 ,0,0,0.,24.0,0.,24.0
1979-07-15 11:25:56.120 ,1,1,0.,24.0,0.,24.0
1979-07-15 11:26:20.120 ,1,0,0.,24.0,0.,24.0
1979-07-15 11:26:44.120 ,2,1,0.,24.0,0.,24.0
1979-07-15 11:27:08.120 ,2,0,0.,24.0,0.,24.0
1979-07-15 11:27:32.120 ,3,1,0.,24.0,0.,24.0
1979-07-15 11:27:56.120 ,3,0,1.,24.0,0.,24.0
1979-07-15 11:28:20.120 ,4,1,0.,24.0,0.,24.0
1979-07-15 11:28:44.120 ,4,0,0.,24.0,0.,24.0
1979-07-15 11:29:08.120 ,5,1,0.,24.0,0.,24.0
1979-07-15 11:29:32.120 ,5,0,0.,24.0,0.,24.0
1979-07-15 11:29:56.120 ,6,1,0.,24.0,0.,24.0
1979-07-15 11:30:20.120 ,6,0,0.,24.0,0.,24.0
1979-07-15 11:30:44.120 ,7,0,0.,24.0,0.,24.0
1979-07-15 11:31:08.120 ,7,0,0.,24.0,0.,24.0
1979-07-15 11:31:32.120 ,3,1,0.,24.0,0.,24.0
1979-07-15 11:31:56.120 ,0,1,0.,24.0,0.,24.0
1979-07-15 11:32:20.120 ,4,1,0.,24.0,0.,24.0
1979-07-15 11:32:44.120 ,7,1,0.,24.0,0.,24.0
1979-07-15 11:33:08.120 ,3,1,0.,24.0,0.,24.0
1979-07-15 11:33:32.120 ,0,1,0.,24.0,0.,24.0
1979-07-15 11:33:56.120 ,4,1,0.,24.0,0.,24.0
1979-07-15 11:34:20.120 ,7,1,0.,24.0,0.,24.0
1979-07-15 11:34:44.120 ,3,1,0.,24.0,0.,24.0
1979-07-15 11:35:08.120 ,0,1,0.,24.0,0.,24.0
1979-07-15 11:35:32.120 ,4,1,0.,24.0,0.,24.0
1979-07-15 11:35:56.120 ,7,1,0.,24.0,0.,24.0
1979-07-15 11:36:20.120 ,3,1,0.,24.0,0.,24.0
1979-07-15 11:36:44.120 ,0,1,0.,24.0,0.,24.0
1979-07-15 11:37:08.120 ,4,1,0.,24.0,0.,24.0
1979-07-15 11:37:32.120 ,7,1,0.,24.0,0.,24.0
1979-07-15 11:37:56.120 ,3,1,0.,24.0,0.,24.0
1979-07-15 11:38:20.120 ,0,1,0.,24.0,0.,24.0
1979-07-15 11:38:44.120 ,4,1,0.,24.0,0.,24.0
1979-07-15 11:39:08.120 ,7,1,0.,24.0,0.,24.0
1979-07-15 11:39:32.120 ,3,1,0.,24.0,0.,24.0
1979-07-15 11:39:56.120 ,0,1,0.,24.0,0.,24.0
1979-07-15 11:40:20.120 ,4,1,0.,24.0,0.,24.0
1979-07-15 11:40:44.120 ,7,1,0.,24.0,0.,24.0
1979-07-15 11:41:08.120 ,3,1,0.,24.0,0.,24.0
1979-07-15 11:41:32.120 ,0,1,0.,24.0,0.,24.0
1979-07-15 11:41:56.120 ,0,0,0.,24.0,0.,24.0
1979-07-15 11:42:20.120 ,0,0,0.,24.0,0.,24.0
1979-07-15 11:42:44.120 ,5,1,0.,24.0,0.,24.0
1979-07-15 11:43:08.120 ,5,0,0.,24.0,0.,24.0
1979-07-15 11:43:32.120 ,4,1,0.,24.0,0.,24.0
1979-07-15 11:43:56.120 ,4,0,0.,24.0,0.,24.0
1979-07-15 11:44:20.120 ,3,1,0.,24.0,0.,24.0
1979-07-15 11:44:44.120 ,3,0,0.,24.0,0.,24.0
1979-07-15 11:45:08.120 ,2,1,0.,24.0,0.,24.0
1979-07-15 11:45:32.120 ,2,0,0.,24.0,0.,24.0
1979-07-15 11:45:56.120 ,1,1,0.,24.0,0.,24.0
1979-07-15 11:46:20.120 ,1,0,0.,24.0,0.,24.0
1979-07-15 11:46:44.120 ,0,1,0.,24.0,0.,24.0
1979-07-15 11:47:08.120 ,0,0,0.,24.0,0.,24.0
1979-07-15 11:47:32.120 ,0,1,0.,24.0,0.,24.0
1979-07-15 11:47:56.120 ,0,0,0.,24.0,0.,24.0
1979-07-15 11:48:20.120 ,1,1,0.,24.0,0.,24.0
1979-07-15 11:48:44.120 ,1,0,0.,24.0,0.,24.0
1979-07-15 11:49:08.120 ,2,1,0.,24.0,0.,24.0
1979-07-15 11:49:32.120 ,2,0,0.,24.0,0.,24.0
1979-07-15 11:49:56.120 ,3,1,0.,24.0,0.,24.0
1979-07-15 11:50:20.120 ,3,0,0.,24.0,0.,24.0
1979-07-15 11:50:44.120 ,4,1,0.,24.0,0.,24.0
1979-07-15 11:51:08.120 ,4,0,0.,24.0,0.,24.0
1979-07-15 11:51:32.120 ,5,1,0.,24.0,0.,24.0
1979-07-15 11:51:56.120 ,5,0,0.,24.0,0.,24.0
1979-07-15 11:52:20.120 ,6,1,0.,24.0,0.,24.0
1979-07-15 11:52:44.120 ,6,0,0.,24.0,0.,24.0
1979-07-15 11:53:08.120 ,7,1,0.,24.0,0.,24.0
1979-07-15 11:53:32.120 ,7,0,0.,24.0,0.,24.0
1979-07-15 11:53:56.120 ,7,1,0.,24.0,0.,24.0
1979-07-15 11:54:20.120 ,7,0,0.,24.0,0.,24.0
1979-07-15 11:54:44.120 ,6,1,0.,24.0,0.,24.0
1979-07-15 11:55:08.120 ,6,0,0.,24.0,0.,24.0
1979-07-15 11:55:32.120 ,5,1,0.,24.0,0.,24.0
1979-07-15 11:55:56.120 ,5,0,0.,24.0,0.,24.0
1979-07-15 11:56:20.120 ,4,1,0.,24.0,0.,24.0
1979-07-15 11:56:44.120 ,4,0,0.,24.0,0.,24.0
1979-07-15 11:57:08.120 ,3,1,0.,24.0,0.,24.0
1979-07-15 11:57:32.120 ,3,0,0.,24.0,0.,24.0
1979-07-15 11:57:56.120 ,2,1,0.,24.0,0.,24.0
1979-07-15 11:58:20.120 ,2,0,0.,24.0,0.,24.0
1979-07-15 11:58:44.120 ,1,1,0.,24.0,0.,24.0
1979-07-15 11:59:08.120 ,1,0,0.,24.0,0.,24.0
1979-07-15 11:59:32.120 ,0,1,0.,24.0,0.,24.0
1979-07-15 11:59:56.120 ,0,0,0.,24.0,0.,24.0
1979-07-15 12:00:20.120 ,0,1,0.,24.0,0.,24.0
